Temp_Advection
nan nan nan nan nan nan nan nan nan nan nan nan nan nan nan nan nan nan nan nan nan nan nan nan nan nan nan nan nan nan nan nan nan nan nan nan nan nan nan nan nan nan nan nan nan nan nan
nan -0 -0 -0 -0 -0 -0 -0 -0 -0 -0 -0 -0 0 0 0 0 0 -0 -1 -0 -0 -1 -1 -1 -0 -1 -0 -0 -0 -0 -0 -0 -0 -0 -0 -0 -0 0 0 -0 -1 -0 -1 -1 -0 nan
nan 0 -0 -0 -0 -0 -0 -0 -0 -0 -0 -0 -0 -0 -0 -0 -0 -0 -1 -0 -0 -1 -0 -0 -0 -0 -2 -0 -0 0 0 -0 0 0 -0 -0 -0 -0 0 -0 -0 -0 -0 -1 -1 -1 nan
nan 0 -0 -0 -0 -0 -0 -0 -0 -0 -0 -0 -0 -0 -0 -0 -0 -0 -0 -0 -0 -0 -0 -0 -0 -0 -0 0 -0 -0 -0 0 0 0 0 -0 -0 -0 -0 -0 -0 0 0 -0 -0 -0 nan
nan -0 0 -0 -0 0 -0 -0 -0 -0 -0 -0 -0 -0 -0 -0 -0 -0 -0 -0 -0 -0 -0 0 0 -0 -0 -0 -0 -1 -0 -1 -0 -0 0 0 0 -0 0 0 -0 0 -0 -0 -1 -1 nan
nan -0 -0 -0 -0 -0 -0 -0 -0 -0 -0 -0 -0 -0 -0 -0 -0 -0 -0 -0 0 -0 -0 0 -1 -0 -1 -0 -0 -0 -1 -0 -1 -1 -0 -0 0 -0 -1 -0 0 -1 -1 -1 -0 -1 nan
nan -0 -0 -0 -0 -0 -0 -0 -0 -0 -0 -0 -0 -0 -0 -0 -0 -0 -1 -0 -0 -1 -1 -1 -0 0 -0 0 -0 -0 -1 -0 -1 -2 -1 -1 -1 -0 -0 -0 0 -0 0 -0 -1 0 nan
nan -0 -0 -0 -0 -0 -0 -0 -0 -0 -0 -0 -0 -0 -0 -0 -0 -1 -1 -1 -0 0 0 0 -0 0 -0 0 -0 -0 -0 -0 -1 -1 -0 -0 0 0 0 -0 -0 -0 -0 -0 -1 -1 nan
nan -0 -0 -0 0 -0 -0 -0 -0 -0 -0 -0 -0 -0 -0 -0 -0 -1 -1 -1 -0 0 0 0 -0 -0 -0 0 -0 -0 0 -0 -0 -0 -0 0 0 -0 -0 -0 -0 -0 0 0 -0 -1 nan
nan 0 -0 -0 -0 -0 -0 -0 -0 -0 -0 -0 -0 -0 -0 -0 -0 -0 -1 -0 0 -0 0 -0 -0 -0 0 -0 -0 -0 -0 -0 -0 -0 -0 -0 -1 -1 -0 -0 -0 -0 0 0 0 -0 nan
nan 0 0 -0 -0 -0 -0 -0 -0 0 -0 -0 -0 -0 -0 -0 -0 -0 -0 -0 0 0 -0 -0 -0 -0 -1 -0 -0 -0 -1 -1 -0 -0 -0 -0 -0 -0 0 -0 0 -0 -1 0 0 1 nan
nan 0 0 -0 -0 -0 -0 -0 -0 -0 -0 -0 -0 -0 -0 -0 -0 -0 0 -0 0 -0 0 -0 -0 -0 -0 -0 -0 -0 -1 -1 -1 -0 -0 -0 -0 -0 -0 -1 -0 0 -0 -1 0 0 nan
nan 0 0 -0 -0 -0 -0 -0 -0 -0 -0 -0 -0 -0 -0 -0 -0 -0 -0 -0 -0 -0 0 -0 -0 -0 -0 -0 -0 -1 -0 -1 -0 -0 -1 -0 -1 -0 -0 -1 -1 -0 -0 -0 -0 0 nan
nan 0 0 -0 -0 -0 -0 -0 -0 -0 -0 0 0 0 -0 -0 0 0 -0 -0 -0 -0 -0 -0 -0 -0 -0 -0 -0 -0 -0 -0 -0 -0 -0 -0 -0 -0 -0 0 -0 -0 0 0 -0 -0 nan
nan 0 0 0 0 -0 -0 -0 -0 -0 -0 -0 -0 -0 -0 0 0 0 -0 -1 0 0 0 -0 -0 -0 -0 -0 -0 -0 -0 -0 -0 -0 -0 -0 -0 -1 -1 0 -0 -0 -0 0 0 0 nan
nan 1 -0 -0 0 -0 -0 -0 -0 -0 -0 -0 -0 -0 -0 0 0 -1 -1 -0 0 0 -0 -0 -0 -0 -0 -0 -0 -0 -0 -0 -0 0 0 0 -1 -1 -0 -1 -1 -1 -0 -0 -0 -0 nan
nan 0 -0 -0 0 -0 -0 -0 -0 -0 -0 -0 -0 -0 -0 -0 -0 -3 -0 0 0 0 -0 -0 -0 -0 -0 -0 -0 0 -0 0 -0 -0 -0 0 0 -1 -0 -1 -0 -0 -0 -1 0 0 nan
nan 0 -0 -0 0 -0 -0 -0 -0 -0 -0 -0 -0 -0 -0 -0 -1 -1 0 0 0 -0 -0 -0 -0 -0 -0 0 -0 -0 -0 -0 -0 -0 -0 0 0 -0 -0 -0 -0 -1 -0 -0 0 -0 nan
nan 0 -0 -0 0 0 -0 -0 -0 -0 -0 -0 -0 -0 -0 -0 -1 0 0 0 -0 -0 -0 -0 -0 -0 -0 0 -0 -0 -0 -0 -0 -0 0 -0 -0 -0 -0 0 -0 -1 -0 0 0 0 nan
nan -0 -0 0 0 0 -0 -0 -0 -0 -0 -0 -0 -0 -0 -1 -1 -0 0 0 0 -0 -0 -0 -0 -0 -0 -0 -0 -0 -0 -0 -0 -1 -0 -0 -0 0 0 0 -0 -0 -0 -0 -0 -0 nan
nan -0 0 0 -0 -0 -0 -0 -0 -0 0 0 -0 -0 0 -0 -0 -0 0 0 0 0 -0 -0 -0 -0 -0 -0 -0 -0 -0 -0 -0 -1 -1 -1 0 0 0 0 0 -0 -0 -0 -0 0 nan
nan 0 0 -0 -0 -0 -0 -0 -0 0 0 0 -0 -0 -0 -0 -0 -0 -0 0 0 -0 -0 -0 -0 -0 0 -1 0 -0 0 0 0 -1 -1 -1 -0 0 0 -0 -0 0 -0 -0 -0 0 nan
nan 0 0 -0 0 -0 -0 -0 0 0 0 0 -0 -0 -0 0 -0 -0 -0 0 0 -0 -0 -0 -0 0 0 -0 -0 -0 0 -0 -0 -0 0 -0 0 0 -0 0 -0 0 0 -0 0 0 nan
nan 0 0 -0 0 -0 -0 -0 -0 0 0 0 -0 -1 -1 0 0 -0 -0 0 -0 -0 0 0 -1 -0 0 -0 0 0 -0 -0 -0 -0 0 -0 0 0 -0 -0 -0 0 0 0 0 1 nan
nan 0 0 0 0 -0 -0 -0 -0 -0 0 0 0 -0 -1 -0 1 -0 0 0 0 0 0 0 0 -0 0 -0 -0 -0 -0 -0 0 0 0 -0 0 -0 0 0 0 0 0 -0 0 1 nan
nan 0 0 0 0 -0 -0 0 0 0 0 0 0 0 -0 -3 0 0 0 0 -0 0 -0 0 0 0 -0 0 -0 0 0 0 0 0 -0 -1 0 0 -0 1 0 1 0 -0 -0 -0 nan
nan 1 0 -0 0 0 0 0 0 0 0 0 0 0 -0 -2 0 0 -0 0 -0 -1 0 0 0 0 0 -0 0 0 0 0 -0 0 -0 0 0 0 -0 0 -0 -0 0 0 0 -0 nan
nan 0 -0 0 0 0 0 0 0 0 0 0 0 0 -0 -2 -1 0 -0 -0 -0 -0 -0 0 -0 0 -0 0 0 0 -0 0 -0 0 0 -0 -0 0 -0 1 -0 -1 -0 -0 -1 -0 nan
nan nan nan nan nan nan nan nan nan nan nan nan nan nan nan nan nan nan nan nan nan nan nan nan nan nan nan nan nan nan nan nan nan nan nan nan nan nan nan nan nan nan nan nan nan nan nan
Wind_Speed
17 17 16 16 14 10 11 13 15 16 18 19 20 21 23 24 22 25 25 20 17 15 13 10 14 18 15 15 14 16 16 12 9 4 6 7 9 8 6 6 17 21 19 32 34 31 28
16 16 16 15 10 9 10 12 14 16 18 20 21 22 23 24 22 25 24 17 17 16 15 19 20 15 12 11 16 15 17 11 9 11 6 7 7 11 14 14 14 16 20 22 23 22 24
16 17 16 14 8 8 10 12 14 16 18 20 22 23 24 24 22 24 22 15 14 15 14 15 15 21 31 15 13 18 22 12 8 8 11 9 9 8 10 11 16 15 13 14 11 13 11
15 15 15 11 7 7 9 12 14 17 19 21 22 23 25 23 21 23 18 13 14 14 17 16 14 16 12 18 12 19 30 14 11 7 8 9 8 12 11 13 13 11 8 6 3 7 8
15 15 14 8 6 8 10 12 14 17 19 21 22 24 24 22 20 21 16 9 18 12 15 20 10 7 6 20 24 28 28 20 20 9 6 3 4 3 8 5 5 4 11 10 10 13 13
14 14 13 6 6 7 10 12 14 17 19 21 22 24 24 23 18 21 16 5 13 20 9 11 15 7 20 20 25 28 33 18 18 20 8 2 2 1 7 5 7 7 8 11 14 10 15
13 13 11 5 5 8 10 12 15 18 20 22 24 23 22 22 17 19 18 3 2 9 30 22 14 11 11 13 18 31 35 17 21 23 8 14 7 5 6 4 5 7 4 8 10 6 8
12 11 9 4 6 8 10 13 15 18 21 22 23 22 21 20 14 20 21 10 8 11 13 14 22 19 15 10 19 34 30 13 13 12 9 7 6 3 6 10 10 10 3 5 5 14 8
10 9 5 4 5 8 11 13 15 18 21 23 24 22 20 17 8 21 21 15 11 14 6 6 14 24 27 8 21 28 26 13 6 13 11 4 6 10 10 7 12 8 2 7 8 7 5
12 9 3 4 5 8 11 14 16 19 21 23 23 23 21 16 4 16 17 11 7 9 4 8 9 14 30 6 9 26 27 9 9 8 8 5 14 12 7 6 12 7 6 7 11 7 3
11 8 3 4 5 8 11 14 17 19 21 23 22 20 19 13 9 17 14 7 10 4 4 5 5 11 20 14 7 21 21 13 9 10 7 7 8 12 8 9 11 8 14 7 12 12 4
9 8 3 4 6 8 11 14 17 19 20 21 20 17 13 13 13 15 12 6 5 3 1 5 3 8 6 12 10 15 18 11 13 4 8 5 11 6 2 16 12 11 7 13 6 3 0
10 9 5 5 6 9 11 14 17 19 20 19 17 13 14 16 14 14 9 4 4 6 4 6 4 6 5 6 6 11 5 12 5 5 8 5 8 7 3 16 11 5 6 4 4 3 2
10 9 7 4 7 9 11 14 17 19 19 19 13 5 16 13 10 10 5 4 9 4 3 3 4 7 4 8 5 10 9 3 10 5 2 5 7 9 17 5 8 12 2 3 4 6 7
10 10 5 7 9 9 12 15 17 18 18 16 9 5 14 9 5 6 3 7 2 1 2 5 6 5 5 7 5 8 7 6 7 9 3 3 4 18 16 11 7 6 5 4 4 3 1
8 10 4 13 10 9 12 15 16 17 18 12 5 3 14 9 3 4 7 5 3 3 2 3 3 4 5 6 7 7 3 8 6 10 4 4 7 7 9 9 10 6 5 5 4 3 4
9 9 3 14 10 10 12 15 16 16 15 7 1 0 9 6 4 13 4 4 5 5 4 4 2 3 4 3 3 5 5 6 9 7 7 4 3 7 6 7 5 6 5 4 2 1 2
12 11 5 13 11 11 13 15 15 16 12 4 1 2 7 8 8 6 3 5 4 3 8 6 4 4 2 3 3 4 3 5 15 10 2 2 1 4 3 7 13 9 4 3 3 6 2
11 5 7 13 11 11 12 14 14 15 9 2 3 3 10 3 4 2 4 4 4 3 5 3 3 5 4 2 2 3 5 7 15 9 6 4 2 3 1 5 1 5 6 4 3 2 2
10 8 9 9 10 11 12 13 13 11 6 1 3 2 8 12 11 7 6 2 4 8 7 4 4 6 5 4 3 2 5 4 9 13 13 3 0 3 3 2 2 3 8 9 3 1 4
11 13 12 9 12 11 11 12 12 9 3 3 3 1 2 2 4 6 5 1 3 2 5 8 4 4 3 0 4 2 4 5 5 11 7 4 2 2 0 3 4 3 5 5 3 2 3
15 13 8 8 12 10 10 11 10 7 3 4 5 6 7 9 11 8 3 1 3 3 4 2 5 1 1 5 5 4 2 0 1 7 5 5 3 2 1 3 3 2 3 3 1 2 2
15 11 9 9 12 10 11 11 9 6 5 3 7 10 8 6 5 4 3 4 4 7 5 7 5 3 3 4 1 2 3 5 4 3 2 3 1 3 3 4 2 5 4 2 4 2 5
14 13 12 11 11 11 11 10 8 5 6 6 12 14 6 1 3 3 5 4 5 4 7 3 7 5 4 1 8 7 7 6 3 2 0 2 3 1 2 3 3 5 4 4 5 8 6
15 15 13 11 11 10 9 9 6 4 3 7 15 7 7 3 10 6 9 6 9 6 3 4 3 4 2 5 3 3 2 5 3 4 3 3 4 2 2 2 4 4 2 1 3 6 5
18 17 14 11 10 9 8 7 4 3 4 6 13 8 5 15 4 8 6 7 4 3 3 4 3 3 5 3 2 3 2 3 4 7 3 4 5 4 4 3 3 5 3 8 7 4 7
18 21 16 11 9 9 8 6 4 4 5 8 9 9 5 9 10 14 4 6 8 5 3 4 4 4 4 2 2 2 2 4 1 1 3 4 4 3 1 1 7 5 10 10 6 5 11
24 20 13 11 9 9 8 6 5 5 6 6 9 8 4 7 14 10 9 8 10 7 4 7 4 1 2 2 3 3 3 4 2 3 4 4 3 2 2 3 5 13 6 5 4 6 9
23 16 14 10 10 8 8 7 6 6 7 5 7 7 7 6 9 10 9 10 8 9 9 9 2 4 5 3 1 3 1 2 3 2 2 2 5 3 7 5 2 24 12 10 15 17 17
Wind_Direction
5 7 6 5 13 30 38 35 30 25 22 19 16 13 10 7 5 4 3 9 20 19 23 37 94 103 94 77 28 339 350 358 351 291 294 257 237 250 243 242 234 249 256 256 260 264 265
5 3 3 6 23 38 35 29 24 21 17 13 11 11 8 7 5 5 5 21 27 34 57 89 88 85 88 75 6 348 353 346 9 353 256 276 243 251 276 258 255 276 288 280 276 277 280
4 1 0 4 34 38 30 22 18 16 13 9 8 7 7 6 6 6 7 28 39 53 81 97 82 91 65 44 357 8 7 357 345 327 309 251 269 290 297 315 295 316 308 307 307 301 267
360 2 360 5 26 32 24 18 14 11 7 7 5 4 5 7 8 7 8 33 48 73 81 75 69 83 94 23 352 17 11 23 38 16 338 337 261 282 278 276 294 297 282 299 327 335 296
358 356 356 15 21 20 16 12 8 6 5 4 4 2 3 7 8 8 7 57 55 80 80 55 55 104 46 11 18 0 4 358 359 4 286 301 282 287 292 284 298 230 283 299 328 345 343
353 356 353 13 18 12 8 7 4 4 2 2 2 2 2 3 10 10 12 66 76 54 99 84 49 75 25 7 18 357 16 36 18 23 59 21 223 358 9 345 308 347 327 319 331 349 338
350 353 355 1 11 4 4 2 1 1 360 360 0 0 0 0 5 12 19 104 69 42 56 76 63 73 12 12 25 25 11 43 37 36 25 342 62 30 346 333 280 302 266 271 313 307 3
344 352 351 355 355 357 359 357 359 358 357 356 357 1 359 358 357 10 22 74 86 128 76 62 54 43 23 18 23 20 19 40 38 29 2 10 71 1 9 22 19 15 342 338 318 336 315
335 348 352 338 344 347 353 354 355 357 355 354 354 357 0 359 352 8 19 54 118 130 103 73 37 29 9 14 35 5 10 11 31 17 352 65 5 357 349 23 9 352 285 307 277 305 267
330 331 348 316 334 339 348 348 350 357 352 350 351 354 1 5 7 1 15 29 132 142 92 346 3 12 20 52 31 4 9 32 21 7 355 14 334 346 359 23 7 324 309 329 330 341 258
326 317 338 306 327 335 343 345 347 351 348 348 350 356 358 13 12 8 360 27 143 137 27 348 18 7 35 70 333 4 29 63 49 27 47 306 341 343 38 6 337 258 313 303 302 285 286
316 315 300 298 317 333 339 341 344 344 346 347 348 356 4 4 6 8 9 70 119 58 299 352 47 341 28 39 8 355 42 50 48 46 9 304 340 359 30 351 305 310 328 317 287 198 70
309 308 286 294 315 329 333 336 339 342 345 345 345 355 6 6 3 12 18 65 49 75 343 360 335 340 26 13 347 6 45 47 48 16 8 337 319 335 28 345 323 1 346 334 322 350 0
293 300 273 300 310 323 329 334 336 340 344 342 339 343 15 10 359 8 23 59 68 58 2 22 319 321 58 13 6 352 357 79 31 56 338 9 332 360 320 283 282 297 204 234 277 305 293
290 294 278 305 300 319 325 330 335 340 344 343 341 352 8 22 15 12 75 53 111 70 359 330 332 42 350 11 0 8 8 33 38 38 99 342 258 312 308 316 1 328 333 290 300 268 321
277 284 319 292 297 313 321 325 338 342 344 346 351 19 14 27 35 85 71 106 104 65 358 8 51 45 6 5 11 8 11 22 360 16 16 266 303 283 313 349 20 52 345 25 356 340 307
263 276 304 283 291 306 314 328 339 344 343 343 357 10 12 18 89 61 89 98 119 78 64 75 44 349 57 3 305 334 20 77 1 334 332 340 141 296 344 24 354 3 14 353 183 83 272
263 274 308 277 286 300 315 332 338 344 347 342 127 47 6 13 54 60 75 131 111 40 48 51 75 77 57 339 325 14 71 34 350 5 6 272 209 288 336 105 92 68 15 95 98 325 317
254 252 264 268 285 295 318 329 338 342 350 11 84 35 24 11 112 90 102 83 94 66 62 60 64 68 22 326 38 24 18 43 34 19 357 351 331 315 280 174 100 58 30 345 268 206 245
241 260 250 259 277 293 316 324 336 338 341 86 117 59 37 57 96 112 116 106 126 58 76 71 102 73 37 10 27 307 351 10 354 16 8 31 22 168 245 271 336 16 10 357 329 49 318
239 236 236 252 271 289 314 321 332 329 298 179 104 118 112 112 44 87 90 75 120 96 48 47 86 80 158 74 349 10 26 323 22 9 23 72 184 127 238 112 85 76 5 11 48 242 195
230 239 232 247 269 290 310 317 323 313 259 212 134 139 89 103 105 89 68 230 128 98 89 111 112 342 288 145 171 226 36 155 257 326 25 4 282 83 218 153 127 148 360 338 27 326 321
231 222 219 247 267 296 306 314 317 304 231 194 139 139 135 147 129 93 206 163 130 119 51 113 153 109 102 127 172 193 168 103 136 155 331 69 82 44 291 216 112 356 243 277 292 201 163
215 209 214 240 266 289 298 310 306 290 247 224 171 154 119 172 99 147 137 122 119 112 159 124 126 121 151 94 131 116 111 98 96 55 185 106 77 98 217 41 7 244 204 196 236 246 228
210 219 205 228 258 279 294 301 298 292 240 198 180 170 135 115 133 115 126 118 110 119 138 133 143 157 192 141 73 29 350 15 298 234 282 140 114 0 117 195 296 317 234 137 104 284 212
210 205 200 224 257 271 287 283 278 239 185 181 183 188 152 129 218 140 135 154 152 163 10 154 171 164 154 131 101 140 215 212 296 336 130 80 84 108 33 116 214 236 225 154 131 313 212
210 192 191 224 246 259 271 255 245 212 189 180 190 182 149 107 153 157 152 169 155 141 143 152 167 140 182 101 87 140 245 168 267 183 315 350 354 122 357 224 289 229 157 161 68 248 201
192 177 194 224 234 248 248 233 225 209 192 185 184 185 170 118 152 178 170 156 156 174 148 153 94 194 65 83 131 214 126 225 90 215 187 178 131 225 75 53 304 163 126 153 207 238 264
174 166 198 215 229 238 223 215 211 205 194 182 183 181 143 130 139 153 167 173 187 171 153 155 153 146 154 90 34 99 122 100 157 269 354 326 185 191 176 218 217 190 220 253 269 274 282
Height
1520 1518 1515 1513 1511 1509 1507 1505 1502 1500 1497 1494 1491 1487 1484 1480 1476 1472 1468 1464 1461 1459 1457 1455 1455 1457 1459 1463 1473 1472 1468 1465 1463 1462 1462 1463 1464 1464 1463 1458 1460 1455 1451 1452 1453 1454 1452
1520 1518 1515 1513 1511 1509 1507 1505 1503 1500 1497 1494 1491 1487 1484 1480 1476 1472 1468 1464 1462 1460 1458 1458 1458 1460 1461 1468 1476 1472 1468 1465 1462 1461 1462 1463 1463 1463 1462 1460 1458 1452 1450 1448 1448 1448 1447
1519 1518 1516 1513 1511 1510 1508 1506 1503 1501 1498 1494 1491 1487 1483 1479 1476 1472 1468 1465 1464 1462 1461 1462 1461 1461 1462 1476 1475 1472 1467 1463 1462 1460 1459 1460 1461 1463 1460 1457 1453 1451 1448 1446 1447 1445 1443
1519 1516 1516 1514 1511 1510 1508 1506 1503 1501 1498 1494 1490 1486 1483 1479 1476 1472 1468 1465 1464 1464 1464 1464 1464 1463 1470 1476 1473 1469 1466 1462 1461 1460 1459 1458 1459 1460 1459 1456 1453 1452 1448 1447 1441 1442 1443
1517 1517 1514 1513 1512 1510 1508 1506 1504 1501 1498 1494 1490 1486 1482 1479 1476 1472 1468 1466 1465 1464 1464 1464 1464 1465 1475 1476 1469 1471 1469 1462 1459 1457 1456 1458 1459 1459 1457 1457 1457 1453 1449 1450 1449 1446 1446
1517 1515 1513 1512 1511 1510 1508 1506 1503 1500 1497 1493 1490 1486 1482 1478 1475 1471 1467 1465 1466 1465 1465 1465 1469 1471 1478 1480 1477 1473 1469 1464 1461 1456 1454 1458 1458 1459 1465 1462 1457 1468 1467 1462 1462 1462 1452
1515 1514 1512 1512 1511 1510 1508 1506 1503 1500 1496 1493 1490 1486 1482 1477 1474 1470 1467 1466 1469 1470 1471 1477 1483 1482 1483 1481 1479 1474 1469 1466 1465 1463 1469 1461 1471 1480 1476 1473 1474 1473 1472 1470 1461 1458 1463
1515 1512 1512 1511 1511 1510 1507 1505 1502 1499 1496 1493 1490 1486 1481 1476 1473 1470 1468 1466 1469 1474 1480 1482 1483 1483 1482 1480 1477 1475 1474 1470 1470 1473 1470 1472 1478 1474 1471 1472 1473 1475 1480 1475 1462 1460 1456
1514 1511 1510 1510 1509 1509 1506 1505 1502 1498 1495 1491 1488 1484 1481 1476 1472 1469 1467 1468 1469 1472 1478 1484 1483 1483 1481 1480 1482 1480 1478 1475 1474 1476 1473 1476 1478 1472 1470 1473 1472 1474 1480 1473 1472 1459 1456
1513 1511 1508 1509 1507 1507 1505 1504 1501 1497 1494 1491 1487 1483 1479 1475 1474 1471 1468 1468 1468 1470 1481 1491 1486 1488 1485 1479 1485 1484 1480 1481 1481 1482 1478 1478 1476 1473 1473 1475 1477 1479 1469 1466 1464 1467 1471
1511 1510 1507 1508 1506 1506 1504 1502 1499 1496 1493 1489 1486 1482 1478 1474 1474 1470 1471 1468 1468 1471 1480 1493 1492 1492 1490 1489 1494 1487 1484 1482 1485 1485 1487 1489 1482 1478 1477 1479 1477 1478 1466 1465 1460 1459 1462
1509 1509 1506 1507 1505 1504 1502 1500 1498 1495 1492 1488 1485 1481 1479 1475 1473 1470 1468 1467 1469 1471 1513 1498 1495 1495 1494 1493 1493 1489 1488 1484 1486 1487 1486 1486 1481 1480 1478 1479 1473 1468 1466 1461 1456 1459 1488
1507 1507 1506 1505 1504 1502 1501 1499 1496 1494 1490 1487 1484 1481 1477 1475 1473 1469 1467 1468 1474 1494 1499 1505 1502 1499 1497 1497 1495 1493 1493 1494 1498 1500 1497 1492 1488 1483 1481 1483 1471 1469 1474 1482 1473 1469 1463
1505 1504 1505 1503 1502 1501 1499 1497 1495 1492 1489 1485 1482 1481 1478 1474 1472 1470 1468 1471 1495 1504 1507 1504 1503 1499 1501 1501 1499 1497 1498 1500 1502 1502 1505 1504 1494 1489 1483 1486 1481 1471 1472 1479 1488 1463 1466
1503 1504 1502 1502 1501 1499 1498 1496 1493 1490 1486 1483 1481 1480 1478 1474 1471 1470 1471 1496 1508 1509 1508 1508 1504 1505 1509 1506 1505 1505 1504 1506 1508 1508 1522 1518 1500 1488 1483 1479 1478 1474 1472 1470 1466 1469 1471
1499 1502 1498 1501 1500 1497 1496 1495 1491 1488 1484 1482 1480 1478 1477 1474 1472 1471 1478 1500 1507 1507 1507 1507 1513 1511 1514 1515 1515 1512 1507 1514 1512 1511 1509 1511 1517 1489 1482 1479 1480 1482 1486 1484 1480 1501 1490
1497 1497 1496 1499 1498 1495 1494 1492 1489 1486 1482 1481 1480 1479 1478 1475 1474 1474 1497 1504 1505 1506 1506 1508 1512 1513 1517 1519 1516 1515 1517 1517 1515 1511 1508 1508 1515 1497 1486 1498 1500 1493 1502 1502 1504 1500 1481
1493 1493 1492 1497 1496 1493 1492 1489 1487 1484 1481 1480 1479 1481 1478 1476 1479 1490 1502 1502 1505 1505 1505 1507 1509 1514 1517 1519 1519 1515 1517 1518 1517 1515 1515 1509 1513 1509 1499 1504 1503 1505 1514 1526 1517 1507 1506
1488 1488 1490 1494 1493 1492 1490 1487 1485 1482 1480 1479 1478 1480 1479 1477 1490 1498 1501 1503 1505 1505 1507 1509 1513 1515 1519 1519 1533 1517 1519 1519 1517 1516 1514 1511 1514 1516 1500 1503 1501 1510 1517 1518 1515 1516 1522
1485 1485 1488 1490 1490 1489 1487 1485 1483 1480 1479 1479 1479 1484 1483 1482 1486 1492 1501 1504 1506 1506 1508 1510 1514 1516 1520 1523 1521 1528 1520 1518 1519 1517 1513 1509 1519 1517 1513 1513 1518 1525 1520 1520 1516 1521 1526
1481 1483 1485 1486 1488 1487 1484 1483 1481 1479 1478 1479 1479 1485 1486 1494 1494 1495 1499 1504 1507 1508 1510 1512 1517 1520 1527 1536 1525 1525 1523 1520 1520 1520 1516 1518 1533 1520 1522 1525 1523 1527 1527 1525 1525 1529 1526
1479 1479 1481 1483 1485 1484 1482 1480 1479 1477 1476 1477 1477 1481 1487 1492 1494 1498 1503 1507 1506 1509 1513 1515 1520 1520 1520 1532 1529 1539 1528 1527 1531 1522 1522 1523 1530 1525 1528 1527 1524 1535 1531 1530 1526 1528 1532
1474 1476 1478 1480 1482 1480 1478 1478 1476 1475 1475 1474 1476 1479 1481 1492 1495 1501 1504 1504 1506 1508 1514 1514 1517 1520 1522 1523 1524 1525 1525 1526 1527 1529 1530 1536 1541 1539 1538 1522 1527 1546 1541 1533 1530 1532 1538
1470 1472 1475 1478 1479 1477 1476 1475 1474 1473 1472 1473 1473 1476 1479 1496 1495 1496 1499 1501 1504 1507 1512 1514 1515 1519 1521 1522 1523 1525 1526 1526 1527 1527 1527 1538 1545 1540 1537 1536 1558 1531 1532 1532 1532 1528 1529
1465 1469 1472 1475 1475 1474 1473 1473 1472 1471 1471 1471 1472 1474 1476 1492 1492 1498 1498 1501 1505 1508 1511 1512 1514 1516 1517 1520 1526 1532 1529 1531 1529 1528 1526 1526 1542 1546 1543 1544 1538 1532 1531 1535 1539 1529 1522
1461 1465 1469 1471 1471 1471 1471 1471 1470 1470 1470 1471 1473 1473 1474 1480 1492 1493 1497 1500 1506 1509 1511 1511 1513 1514 1515 1517 1524 1536 1537 1533 1537 1530 1525 1528 1533 1540 1558 1553 1545 1529 1528 1529 1531 1535 1516
1456 1461 1465 1467 1468 1469 1469 1469 1469 1470 1470 1471 1471 1473 1474 1477 1487 1490 1492 1497 1498 1503 1507 1508 1509 1512 1514 1522 1533 1539 1536 1539 1543 1541 1537 1542 1549 1549 1557 1567 1540 1526 1525 1528 1540 1526 1511
1453 1456 1461 1464 1465 1466 1466 1467 1468 1469 1469 1471 1471 1472 1473 1474 1485 1487 1489 1490 1494 1497 1502 1504 1510 1511 1513 1523 1525 1528 1540 1537 1542 1541 1542 1540 1551 1550 1565 1567 1539 1519 1526 1529 1513 1508 1508
1449 1454 1458 1460 1462 1463 1464 1465 1467 1468 1469 1470 1471 1471 1472 1474 1483 1486 1488 1489 1491 1493 1495 1499 1501 1502 1505 1515 1521 1524 1528 1537 1540 1540 1534 1539 1531 1537 1532 1523 1509 1509 1506 1505 1505 1503 1502